N3LF Weather Reports


time (UTC)temp
C
wind
direction
speed
KPH
gust
KPH
rain 1hr
cm
rain 24hr
cm
rain mn
cm
humidity
%
barometer
mb
20260906003704 31 236 0.0 1.6 0.00 0.00 0.00 66 1013.3
20260906003200 31 234 0.0 1.6 0.00 0.00 0.00 68 1013.4
20260906002659 31 206 0.0 1.6 0.00 0.00 0.00 68 1013.5
20260906002154 32 228 1.6 3.2 0.00 0.00 0.00 63 1013.5
20260906001650 32 240 1.6 1.6 0.00 0.00 0.00 63 1013.6
20260906001149 32 237 0.0 1.6 0.00 0.00 0.00 63 1013.3
20260906000645 32 215 1.6 3.2 0.00 0.00 0.00 62 1013.3
20260906000140 32 229 1.6 3.2 0.00 0.00 0.00 63 1013.2
20260905235639 32 207 1.6 3.2 0.00 0.00 0.00 61 1013.3
20260905235134 32 229 0.0 3.2 0.00 0.00 0.00 61 1013.3
20260905234630 32 234 1.6 1.6 0.00 0.00 0.00 61 1013.3
20260905234126 33 235 0.0 1.6 0.00 0.00 0.00 61 1013.5
20260905233626 33 217 1.6 1.6 0.00 0.00 0.00 59 1013.3
20260905233120 34 213 1.6 3.2 0.00 0.00 0.00 57 1013.3
20260905232616 35 239 1.6 4.8 0.00 0.00 0.00 56 1013.4
20260905232112 35 245 3.2 3.2 0.00 0.00 0.00 55 1013.2
20260905231612 35 216 3.2 6.4 0.00 0.00 0.00 56 1013.4
20260905231108 35 277 3.2 4.8 0.00 0.00 0.00 54 1013.5
20260905230603 36 237 1.6 3.2 0.00 0.00 0.00 53 1013.2
20260905225600 36 253 3.2 4.8 0.00 0.00 0.00 53 1013.3
20260905225056 36 232 1.6 3.2 0.00 0.00 0.00 52 1013.2
20260905224555 36 297 3.2 3.2 0.00 0.00 0.00 51 1013.1
20260905224055 36 233 3.2 9.7 0.00 0.00 0.00 52 1013.2
20260905223553 36 242 1.6 3.2 0.00 0.00 0.00 52 1013.1
20260905223049 37 241 1.6 3.2 0.00 0.00 0.00 50 1013.1
20260905222548 36 242 3.2 4.8 0.00 0.00 0.00 52 1013.2
20260905222044 36 232 0.0 4.8 0.00 0.00 0.00 52 1013.3
20260905221540 37 185 6.4 9.7 0.00 0.00 0.00 51 1013.2
20260905221036 37 306 3.2 9.7 0.00 0.00 0.00 50 1013.3
20260905220531 37 288 6.4 9.7 0.00 0.00 0.00 48 1013.4
20260905220027 37 239 0.0 1.6 0.00 0.00 0.00 48 1013.4
20260905215526 38 229 3.2 4.8 0.00 0.00 0.00 48 1013.2
20260905215023 37 211 0.0 4.8 0.00 0.00 0.00 50 1013.1
20260905214518 37 303 1.6 6.4 0.00 0.00 0.00 48 1013.3
20260905214013 37 295 4.8 6.4 0.00 0.00 0.00 48 1013.3
20260905213509 37 230 0.0 4.8 0.00 0.00 0.00 46 1013.5
20260905213004 38 273 1.6 4.8 0.00 0.00 0.00 45 1013.5
20260905212459 38 351 3.2 4.8 0.00 0.00 0.00 46 1013.4
20260905211958 38 251 0.0 3.2 0.00 0.00 0.00 45 1013.5
20260905211454 38 10 3.2 4.8 0.00 0.00 0.00 48 1013.5
20260905210949 38 243 1.6 6.4 0.00 0.00 0.00 47 1013.5
20260905210445 38 211 1.6 4.8 0.00 0.00 0.00 48 1013.3
20260905205944 38 250 0.0 3.2 0.00 0.00 0.00 47 1013.5
20260905205439 38 349 1.6 3.2 0.00 0.00 0.00 45 1013.5
20260905204938 37 322 3.2 6.4 0.00 0.00 0.00 46 1013.6
20260905204434 37 237 1.6 6.4 0.00 0.00 0.00 46 1013.7
20260905203933 38 316 1.6 4.8 0.00 0.00 0.00 45 1013.8
20260905203428 38 234 3.2 4.8 0.00 0.00 0.00 47 1013.7
20260905202924 38 237 3.2 4.8 0.00 0.00 0.00 47 1014.1
20260905202419 38 192 3.2 3.2 0.00 0.00 0.00 47 1014.3
20260905201914 37 216 1.6 4.8 0.00 0.00 0.00 47 1014.2
20260905201410 37 358 3.2 9.7 0.00 0.00 0.00 49 1014.2
20260905200909 37 358 1.6 3.2 0.00 0.00 0.00 48 1014.2
20260905200405 38 316 3.2 4.8 0.00 0.00 0.00 45 1014.5
20260905195903 37 275 4.8 4.8 0.00 0.00 0.00 48 1014.4
20260905195359 37 166 3.2 4.8 0.00 0.00 0.00 48 1014.5
20260905194854 37 246 0.0 1.6 0.00 0.00 0.00 48 1014.5
20260905194354 36 261 0.0 4.8 0.00 0.00 0.00 50 1014.6
20260905193853 36 344 4.8 6.4 0.00 0.00 0.00 50 1014.7
20260905193348 36 255 1.6 4.8 0.00 0.00 0.00 51 1014.6
20260905192844 36 19 1.6 4.8 0.00 0.00 0.00 49 1014.5
20260905192340 36 13 3.2 6.4 0.00 0.00 0.00 48 1014.6
20260905191839 37 60 9.7 11.3 0.00 0.00 0.00 48 1014.8
20260905191338 38 17 1.6 3.2 0.00 0.00 0.00 46 1014.8
20260905190837 38 204 1.6 1.6 0.00 0.00 0.00 46 1014.8
20260905190336 37 264 1.6 4.8 0.00 0.00 0.00 49 1015.0
20260905185835 37 197 1.6 3.2 0.00 0.00 0.00 49 1015.1
20260905185331 37 204 0.0 3.2 0.00 0.00 0.00 46 1015.2
20260905184830 37 193 3.2 3.2 0.00 0.00 0.00 47 1015.3
20260905184329 38 146 0.0 1.6 0.00 0.00 0.00 51 1015.2
20260905183828 38 241 1.6 1.6 0.00 0.00 0.00 49 1015.4
20260905183323 36 17 1.6 4.8 0.00 0.00 0.00 50 1015.5
20260905182818 36 219 1.6 1.6 0.00 0.00 0.00 55 1015.5
20260905182318 35 123 3.2 3.2 0.00 0.00 0.00 54 1015.7
20260905181813 35 13 0.0 3.2 0.00 0.00 0.00 57 1015.8
20260905181312 36 9 3.2 4.8 0.00 0.00 0.00 56 1015.8
20260905180811 36 356 3.2 9.7 0.00 0.00 0.00 55 1016.0
20260905180307 37 51 0.0 3.2 0.00 0.00 0.00 51 1015.9
20260905175801 37 235 3.2 4.8 0.00 0.00 0.00 50 1016.1
20260905175256 37 217 0.0 3.2 0.00 0.00 0.00 50 1016.1
20260905174751 36 97 1.6 3.2 0.00 0.00 0.00 51 1016.0
20260905174247 35 73 0.0 1.6 0.00 0.00 0.00 53 1016.0
20260905173743 36 97 1.6 3.2 0.00 0.00 0.00 52 1016.3
20260905173239 36 82 1.6 4.8 0.00 0.00 0.00 53 1016.1
20260905172733 36 227 1.6 4.8 0.00 0.00 0.00 53 1016.2
20260905172232 35 76 1.6 6.4 0.00 0.00 0.00 54 1016.1
20260905171728 35 98 3.2 6.4 0.00 0.00 0.00 56 1016.2
20260905171224 36 13 3.2 12.9 0.00 0.00 0.00 56 1016.2
20260905170721 37 12 6.4 9.7 0.00 0.00 0.00 56 1016.3
20260905170222 36 40 0.0 1.6 0.00 0.00 0.00 54 1016.7
20260905165721 35 252 3.2 6.4 0.00 0.00 0.00 57 1016.5
20260905165216 35 64 3.2 4.8 0.00 0.00 0.00 56 1016.5
20260905164711 36 39 4.8 6.4 0.00 0.00 0.00 57 1016.6
20260905164211 36 185 1.6 6.4 0.00 0.00 0.00 57 1016.6
20260905163706 37 139 3.2 4.8 0.00 0.00 0.00 54 1016.7
20260905163203 36 184 1.6 1.6 0.00 0.00 0.00 55 1016.8
20260905162659 35 196 0.0 3.2 0.00 0.00 0.00 57 1016.8
20260905162158 34 303 1.6 3.2 0.00 0.00 0.00 60 1016.9
20260905161653 35 13 3.2 11.3 0.00 0.00 0.00 59 1016.9
20260905161151 35 45 3.2 6.4 0.00 0.00 0.00 59 1016.9
20260905160650 35 356 8.0 9.7 0.00 0.00 0.00 59 1016.8
20260905160149 33 233 1.6 6.4 0.00 0.00 0.00 62 1016.8
20260905155644 35 293 4.8 6.4 0.00 0.00 0.00 62 1016.9
20260905155143 33 321 1.6 6.4 0.00 0.00 0.00 64 1016.8
20260905154637 34 215 1.6 4.8 0.00 0.00 0.00 63 1017.0
20260905154133 33 276 0.0 4.8 0.00 0.00 0.00 64 1017.0
20260905153629 33 18 1.6 3.2 0.00 0.00 0.00 65 1017.0
20260905153124 33 328 6.4 9.7 0.00 0.00 0.00 69 1017.1
20260905152619 33 82 1.6 3.2 0.00 0.00 0.00 68 1017.0
20260905152113 32 358 3.2 4.8 0.00 0.00 0.00 72 1017.3
20260905151609 33 323 1.6 4.8 0.00 0.00 0.00 70 1017.2
20260905151104 32 299 0.0 4.8 0.00 0.00 0.00 73 1017.2
20260905150559 33 137 0.0 1.6 0.00 0.00 0.00 70 1017.3
20260905150058 33 234 1.6 3.2 0.00 0.00 0.00 72 1017.3
20260905145556 32 208 1.6 1.6 0.00 0.00 0.00 76 1017.5
20260905145055 32 73 0.0 1.6 0.00 0.00 0.00 75 1017.4
20260905144550 32 113 0.0 1.6 0.00 0.00 0.00 77 1017.4
20260905144049 31 59 1.6 3.2 0.00 0.00 0.00 78 1017.4
20260905143543 30 113 1.6 1.6 0.00 0.00 0.00 81 1017.5
20260905143039 30 52 3.2 9.7 0.00 0.00 0.00 81 1017.5
20260905142537 30 157 0.0 1.6 0.00 0.00 0.00 80 1017.5
20260905142032 30 92 0.0 3.2 0.00 0.00 0.00 80 1017.5
20260905141527 29 210 0.0 1.6 0.00 0.00 0.00 85 1017.6
20260905141024 28 143 0.0 3.2 0.00 0.00 0.00 87 1017.6
20260905140523 28 100 3.2 4.8 0.00 0.00 0.00 88 1017.6
20260905140022 28 47 1.6 3.2 0.00 0.00 0.00 86 1017.3
20260905135518 29 261 0.0 0.0 0.00 0.00 0.00 84 1017.6
20260905135014 28 261 0.0 0.0 0.00 0.00 0.00 84 1017.4
20260905134514 28 261 0.0 0.0 0.00 0.00 0.00 86 1017.4
20260905134013 27 265 1.6 1.6 0.00 0.00 0.00 89 1017.5
20260905133508 26 245 0.0 0.0 0.00 0.00 0.00 93 1017.5
20260905133002 25 242 0.0 0.0 0.00 0.00 0.00 99 1017.4
20260905132457 25 241 0.0 0.0 0.00 0.00 0.00 99 1017.6
20260905131957 24 239 0.0 0.0 0.00 0.00 0.00 99 1017.5
20260905131453 23 238 0.0 0.0 0.00 0.00 0.00 99 1017.5
20260905130948 23 238 0.0 0.0 0.00 0.00 0.00 99 1017.4
20260905130447 23 238 0.0 0.0 0.00 0.00 0.00 99 1017.5
20260905125947 23 238 0.0 0.0 0.00 0.00 0.00 99 1017.5
20260905125442 23 238 0.0 0.0 0.00 0.00 0.00 99 1017.5
20260905124937 23 215 0.0 0.0 0.00 0.00 0.00 99 1017.6
20260905124434 23 234 0.0 0.0 0.00 0.00 0.00 99 1017.4
20260905123934 23 233 0.0 0.0 0.00 0.00 0.00 99 1017.7
20260905123430 23 234 0.0 0.0 0.00 0.00 0.00 99 1017.5
20260905122925 23 234 0.0 0.0 0.00 0.00 0.00 99 1017.4
20260905122425 23 233 0.0 0.0 0.00 0.00 0.00 99 1017.4
20260905121921 22 233 0.0 0.0 0.00 0.00 0.00 99 1017.3
20260905121416 22 233 0.0 0.0 0.00 0.00 0.00 99 1017.2
20260905120915 22 233 0.0 0.0 0.00 0.00 0.00 99 1017.1
20260905120415 22 233 0.0 0.0 0.00 0.00 0.00 99 1017.2
20260905115910 22 233 0.0 0.0 0.00 0.00 0.00 99 1016.9
20260905115409 22 234 0.0 0.0 0.00 0.00 0.00 99 1017.1
20260905114905 22 234 0.0 0.0 0.00 0.00 0.00 99 1017.1
20260905114404 22 234 0.0 0.0 0.00 0.00 0.00 99 1016.9
20260905113903 22 234 0.0 0.0 0.00 0.00 0.00 99 1016.9
20260905113359 22 245 0.0 0.0 0.00 0.00 0.00 99 1016.9
20260905112854 22 246 0.0 0.0 0.00 0.00 0.00 99 1016.9
20260905112349 22 248 0.0 0.0 0.00 0.00 0.00 99 1016.8
20260905111845 22 256 0.0 0.0 0.00 0.00 0.00 99 1016.6
20260905111345 22 245 0.0 0.0 0.00 0.00 0.00 99 1016.6
20260905110844 22 245 0.0 0.0 0.00 0.00 0.00 99 1016.4
20260905110344 22 245 0.0 0.0 0.00 0.00 0.00 99 1016.7
20260905105839 22 245 0.0 0.0 0.00 0.00 0.00 99 1016.5
20260905105338 22 245 0.0 0.0 0.00 0.00 0.00 99 1016.4
20260905104832 22 245 0.0 0.0 0.00 0.00 0.00 99 1016.5
20260905104329 22 245 0.0 0.0 0.00 0.00 0.00 99 1016.3
20260905103828 22 245 0.0 0.0 0.00 0.00 0.00 99 1016.3
20260905103324 22 245 0.0 0.0 0.00 0.00 0.00 99 1016.3
20260905102820 22 250 0.0 0.0 0.00 0.00 0.00 99 1016.5
20260905102317 22 250 0.0 0.0 0.00 0.00 0.00 99 1016.2
20260905101816 22 225 0.0 0.0 0.00 0.00 0.00 99 1016.2
20260905101315 22 225 0.0 0.0 0.00 0.00 0.00 99 1016.4
20260905100809 22 225 0.0 0.0 0.00 0.00 0.00 99 1016.3
20260905100306 22 225 0.0 0.0 0.00 0.00 0.00 99 1016.3
20260905095805 22 218 0.0 0.0 0.00 0.00 0.00 99 1016.2
20260905095306 22 217 0.0 0.0 0.00 0.00 0.00 99 1016.3
20260905094759 22 217 0.0 0.0 0.00 0.00 0.00 99 1016.2
20260905094255 22 217 0.0 0.0 0.00 0.00 0.00 99 1016.0
20260905093754 22 219 0.0 0.0 0.00 0.00 0.00 99 1015.9
20260905093250 22 218 0.0 0.0 0.00 0.00 0.00 99 1016.1
20260905092745 22 217 0.0 0.0 0.00 0.00 0.00 99 1015.9
20260905092241 23 217 0.0 0.0 0.00 0.00 0.00 99 1015.9
20260905091740 23 218 0.0 0.0 0.00 0.00 0.00 99 1015.8
20260905091235 23 218 0.0 0.0 0.00 0.00 0.00 99 1016.0
20260905090734 23 219 0.0 0.0 0.00 0.00 0.00 99 1016.0
20260905090230 23 219 0.0 0.0 0.00 0.00 0.00 99 1016.0
20260905085729 23 219 0.0 0.0 0.00 0.00 0.00 99 1015.9
20260905085225 23 220 0.0 0.0 0.00 0.00 0.00 99 1016.1
20260905084724 23 218 0.0 0.0 0.00 0.00 0.00 99 1016.2
20260905084224 23 217 0.0 0.0 0.00 0.00 0.00 99 1016.0
20260905083719 23 219 0.0 0.0 0.00 0.00 0.00 99 1016.1
20260905083215 23 218 0.0 0.0 0.00 0.00 0.00 99 1016.1
20260905082711 23 218 0.0 0.0 0.00 0.00 0.00 99 1016.0
20260905082207 23 219 0.0 0.0 0.00 0.00 0.00 99 1016.1
20260905081706 23 219 0.0 0.0 0.00 0.00 0.00 99 1016.1
20260905081202 23 218 0.0 0.0 0.00 0.00 0.00 99 1016.0
20260905080701 23 218 0.0 0.0 0.00 0.00 0.00 99 1016.1
20260905080200 23 218 0.0 0.0 0.00 0.00 0.00 99 1016.2
20260905075700 23 218 0.0 0.0 0.00 0.00 0.00 99 1016.1
20260905075159 23 218 0.0 0.0 0.00 0.00 0.00 99 1016.0
20260905074658 23 219 0.0 0.0 0.00 0.00 0.00 99 1016.0
20260905074154 23 219 0.0 0.0 0.00 0.00 0.00 99 1016.0
20260905073649 23 219 0.0 0.0 0.00 0.00 0.00 99 1016.3
20260905073145 23 216 0.0 1.6 0.00 0.00 0.00 99 1016.2
20260905072644 23 233 0.0 0.0 0.00 0.00 0.00 99 1016.0
20260905072140 23 249 0.0 0.0 0.00 0.00 0.00 99 1016.2
20260905071636 23 221 0.0 0.0 0.00 0.00 0.00 99 1016.2
20260905071131 23 217 0.0 0.0 0.00 0.00 0.00 99 1016.1
20260905070627 23 218 0.0 0.0 0.00 0.00 0.00 99 1016.4
20260905070123 23 217 0.0 0.0 0.00 0.00 0.00 99 1016.3
20260905065621 23 217 0.0 0.0 0.00 0.00 0.00 99 1016.2
20260905065116 23 198 0.0 0.0 0.00 0.00 0.00 99 1016.2
20260905064611 23 76 1.6 1.6 0.00 0.00 0.00 99 1016.2
20260905064106 23 259 0.0 0.0 0.00 0.00 0.00 99 1016.2
20260905063606 23 257 0.0 0.0 0.00 0.00 0.00 99 1016.4
20260905063102 23 257 0.0 0.0 0.00 0.00 0.00 99 1016.4
20260905062557 23 257 0.0 0.0 0.00 0.00 0.00 99 1016.3
20260905062056 23 257 0.0 0.0 0.00 0.00 0.00 99 1016.3
20260905061551 23 257 0.0 0.0 0.00 0.00 0.00 99 1016.3
20260905061050 23 257 0.0 0.0 0.00 0.00 0.00 99 1016.3
20260905060547 24 260 0.0 0.0 0.00 0.00 0.00 99 1016.4
20260905060042 24 260 0.0 0.0 0.00 0.00 0.00 99 1016.3
20260905055541 23 262 0.0 0.0 0.00 0.00 0.00 99 1016.4
20260905055036 24 262 0.0 0.0 0.00 0.00 0.00 99 1016.3
20260905054531 24 278 0.0 0.0 0.00 0.00 0.00 99 1016.3
20260905054027 24 259 0.0 0.0 0.00 0.00 0.00 99 1016.3
20260905053526 24 262 0.0 0.0 0.00 0.00 0.00 99 1016.4
20260905053022 24 262 0.0 1.6 0.00 0.00 0.00 99 1016.5
20260905052521 24 307 1.6 1.6 0.00 0.00 0.00 98 1016.3
20260905052016 24 337 1.6 3.2 0.00 0.00 0.00 98 1016.5
20260905051512 24 261 0.0 0.0 0.00 0.00 0.00 98 1016.4
20260905051009 25 276 0.0 0.0 0.00 0.00 0.00 98 1016.3
20260905050504 25 283 0.0 0.0 0.00 0.00 0.00 98 1016.3
20260905050000 25 283 0.0 0.0 0.00 0.00 0.00 97 1016.3
20260905045456 25 283 0.0 0.0 0.00 0.00 0.00 97 1016.3
20260905044951 25 266 0.0 0.0 0.00 0.00 0.00 97 1016.3
20260905044451 25 260 0.0 0.0 0.00 0.00 0.00 97 1016.3
20260905043950 25 261 0.0 1.6 0.00 0.00 0.00 97 1016.5
20260905043449 25 217 0.0 0.0 0.00 0.00 0.00 96 1016.4
20260905042945 25 217 0.0 0.0 0.00 0.00 0.00 96 1016.6
20260905042438 25 217 0.0 0.0 0.00 0.00 0.00 96 1016.9
20260905041934 25 217 0.0 0.0 0.00 0.00 0.00 96 1016.7
20260905041430 25 217 0.0 0.0 0.00 0.00 0.00 96 1016.8
20260905040925 25 217 0.0 0.0 0.00 0.00 0.00 96 1016.6
20260905040424 25 218 0.0 0.0 0.00 0.00 0.00 96 1016.6
20260905035923 25 218 0.0 0.0 0.00 0.00 0.00 97 1016.8
20260905035419 25 215 0.0 0.0 0.00 0.00 0.00 97 1016.6
20260905034916 25 215 0.0 0.0 0.00 0.00 0.00 97 1016.7
20260905034406 25 215 0.0 0.0 0.00 0.00 0.00 97 1016.6
20260905033904 25 215 0.0 0.0 0.00 0.00 0.00 96 1017.2
20260905033359 25 215 0.0 0.0 0.00 0.00 0.00 96 1017.1
20260905032858 25 215 0.0 0.0 0.00 0.00 0.00 96 1017.3
20260905032354 26 215 0.0 0.0 0.00 0.00 0.00 95 1017.1
20260905031849 26 215 3.2 3.2 0.00 0.00 0.00 95 1017.0
20260905031345 26 291 0.0 0.0 0.00 0.00 0.00 94 1017.0
20260905030840 26 258 0.0 0.0 0.00 0.00 0.00 93 1016.9
20260905030335 26 258 0.0 0.0 0.00 0.00 0.00 92 1016.9
20260905025834 26 258 0.0 0.0 0.00 0.00 0.00 92 1016.9
20260905025330 26 258 0.0 0.0 0.00 0.00 0.00 91 1017.3
20260905024826 26 258 0.0 0.0 0.00 0.00 0.00 91 1016.9
20260905024321 26 258 0.0 0.0 0.00 0.00 0.00 91 1017.0
20260905023816 26 258 0.0 0.0 0.00 0.00 0.00 91 1017.0
20260905023312 26 258 0.0 0.0 0.00 0.00 0.00 90 1016.9
20260905022811 27 258 0.0 0.0 0.00 0.00 0.00 89 1016.9
20260905022307 27 258 0.0 0.0 0.00 0.00 0.00 88 1016.8
20260905021806 27 258 0.0 0.0 0.00 0.00 0.00 88 1016.8
20260905021301 27 258 0.0 0.0 0.00 0.00 0.00 88 1017.0
20260905020755 27 258 0.0 1.6 0.00 0.00 0.00 87 1016.7
20260905020251 27 258 0.0 1.6 0.00 0.00 0.00 85 1016.8
20260905015749 27 257 0.0 0.0 0.00 0.00 0.00 86 1016.8
20260905015244 27 258 0.0 0.0 0.00 0.00 0.00 85 1016.8
20260905014743 27 258 0.0 0.0 0.00 0.00 0.00 85 1016.9
20260905014239 28 258 0.0 0.0 0.00 0.00 0.00 85 1016.9
20260905013734 28 258 0.0 0.0 0.00 0.00 0.00 84 1016.8
20260905013230 28 256 0.0 0.0 0.00 0.00 0.00 82 1016.6
20260905012725 28 256 0.0 0.0 0.00 0.00 0.00 81 1016.6
20260905012221 28 256 0.0 0.0 0.00 0.00 0.00 81 1016.4
20260905011718 28 256 0.0 0.0 0.00 0.00 0.00 80 1016.3
20260905011214 28 256 0.0 0.0 0.00 0.00 0.00 80 1016.3
20260905010713 28 256 0.0 0.0 0.00 0.00 0.00 82 1016.3
20260905010209 28 256 0.0 0.0 0.00 0.00 0.00 81 1016.2
20260905005706 28 256 0.0 0.0 0.00 0.00 0.00 82 1016.2
20260905005201 28 256 0.0 0.0 0.00 0.00 0.00 83 1016.3
20260905004701 28 256 0.0 0.0 0.00 0.00 0.00 82 1016.1
20260905004156 29 256 0.0 0.0 0.00 0.00 0.00 83 1016.3